[[[{"header":{"parameterUnit":"kt","parameterCategory":2,"dx":1,"dy":1,"la1":30.253999710083008,"la2":30.299108505249023,"lo1":-89.0895004272461,"lo2":-89.04439544677734,"nx":28,"ny":28,"refTime":"2022-10-18T21:00:00:Z","depth":0,"parameterNumber":1,"parameterNumberName":"U-component_of_WINDS"},"data":[-0.195,-0.1959,-0.1965,-0.1977,-0.1985,-0.1995,-0.2,-0.2008,-0.2016,-0.2027,-0.2035,-0.2044,-0.2055,-0.2065,-0.2074,-0.2078,-0.208,-0.2076,-0.2081,-0.2093,-0.2095,-0.2097,-0.2095,-0.2077,-0.2077,-0.2066,-0.2066,-0.2066,-0.195,-0.1958,-0.1967,-0.1982,-0.1989,-0.1996,-0.2008,-0.2014,-0.2023,-0.2034,-0.2043,-0.2054,-0.2065,-0.2079,-0.209,-0.2092,-0.2097,-0.2095,-0.2094,-0.2095,-0.2109,-0.2106,-0.2091,-0.2091,-0.2091,-0.2091,-0.2091,-0.2091,-0.1951,-0.1957,-0.197,-0.1981,-0.1991,-0.2,-0.2007,-0.2018,-0.2028,-0.2042,-0.2051,-0.2061,-0.2074,-0.2094,-0.2103,-0.2111,-0.2115,-0.2116,-0.2115,-0.2115,-0.2111,-0.2119,-0.2114,-0.2114,-0.2114,-0.2114,-0.2114,0,-0.1954,-0.196,-0.1972,-0.1984,-0.1993,-0.2005,-0.2017,-0.2022,-0.2039,-0.2048,-0.206,-0.2068,-0.2085,-0.2097,-0.2111,-0.2121,-0.2131,-0.2134,-0.2134,-0.2129,-0.212,-0.2121,-0.214,-0.2135,-0.2135,-0.2135,-0.2135,-0.2135,-0.1954,-0.1962,-0.1982,-0.1989,-0.1998,-0.201,-0.2019,-0.2034,-0.2043,-0.2061,-0.2065,-0.2079,-0.2091,-0.211,-0.2125,-0.2138,-0.2143,-0.2139,-0.2146,-0.2138,-0.214,-0.2138,-0.2138,-0.2138,-0.2137,-0.2137,-0.2137,0,-0.1952,-0.1967,-0.1983,-0.2004,-0.2009,-0.2016,-0.2034,-0.2042,-0.2054,-0.2066,-0.2069,-0.2089,-0.2101,-0.2118,-0.2138,-0.2145,-0.2153,-0.2159,-0.2146,-0.2148,-0.2144,-0.2143,-0.2135,-0.2134,-0.2155,-0.2155,-0.2155,0,-0.1957,-0.1968,-0.199,-0.1999,-0.201,-0.2027,-0.2038,-0.205,-0.2065,-0.2075,-0.209,-0.2099,-0.212,-0.213,-0.2143,-0.2153,-0.2158,-0.2164,-0.2167,-0.2162,-0.2161,-0.2167,-0.2167,-0.2178,-0.2178,-0.2178,-0.2178,0,-0.1952,-0.1979,-0.1994,-0.2002,-0.2028,-0.2034,-0.2045,-0.2063,-0.2073,-0.2088,-0.2094,-0.2111,-0.212,-0.2132,-0.2148,-0.2151,-0.2163,-0.2171,-0.2169,-0.2168,-0.217,-0.217,-0.2159,-0.2178,-0.2178,-0.2178,-0.2178,0,-0.1959,-0.1975,-0.1996,-0.2016,-0.2023,-0.2034,-0.2051,-0.2065,-0.2083,-0.2092,-0.2105,-0.2118,-0.2131,-0.2137,-0.2154,-0.2153,-0.216,-0.2169,-0.2169,-0.2171,-0.2176,-0.2165,-0.2154,-0.2153,-0.2171,-0.2171,-0.2171,0,-0.1946,-0.1973,-0.1989,-0.2009,-0.2024,-0.2039,-0.2051,-0.2068,-0.2081,-0.2095,-0.211,-0.2127,-0.2135,-0.2143,-0.215,-0.2166,-0.2167,-0.2167,-0.2183,-0.2183,-0.2175,-0.2166,-0.2159,-0.2155,-0.2171,-0.2171,-0.2171,0,-0.1939,-0.1974,-0.1977,-0.1987,-0.2014,-0.2029,-0.2043,-0.2064,-0.2072,-0.2092,-0.2103,-0.213,-0.2136,-0.215,-0.2164,-0.217,-0.2167,-0.2177,-0.2178,-0.2172,-0.2174,-0.2166,-0.2166,-0.2174,-0.2174,-0.2174,-0.2171,0,-0.194,-0.1959,-0.1968,-0.1995,-0.201,-0.2026,-0.2047,-0.2058,-0.2069,-0.2085,-0.2104,-0.2127,-0.215,-0.2156,-0.2169,-0.2178,-0.218,-0.2188,-0.2195,-0.219,-0.2189,-0.2189,-0.2194,-0.2194,-0.2194,-0.2195,0,0,-0.1923,-0.1951,-0.1971,-0.1988,-0.2001,-0.202,-0.2034,-0.205,-0.2082,-0.2089,-0.2094,-0.2134,-0.2154,-0.2175,-0.2175,-0.2187,-0.2189,-0.2192,-0.2193,-0.2192,-0.2192,-0.2191,-0.219,-0.2195,-0.2195,-0.2195,-0.2196,0,-0.1928,-0.1949,-0.1964,-0.1981,-0.2007,-0.2023,-0.2027,-0.2057,-0.2068,-0.209,-0.2105,-0.2121,-0.2156,-0.2172,-0.2185,-0.2189,-0.2201,-0.2196,-0.2189,-0.2195,-0.2194,-0.2194,-0.2192,-0.2191,-0.2196,-0.2196,-0.2196,0,-0.1924,-0.1946,-0.1957,-0.1991,-0.201,-0.2027,-0.2038,-0.2058,-0.2071,-0.2093,-0.2115,-0.2131,-0.2157,-0.2177,-0.2187,-0.2192,-0.221,-0.221,-0.2209,-0.2211,-0.2218,-0.2217,-0.2216,-0.2226,-0.2226,-0.2226,0,0,-0.1925,-0.1944,-0.1976,-0.1995,-0.2004,-0.2031,-0.2043,-0.2057,-0.2081,-0.209,-0.2112,-0.2134,-0.2154,-0.2167,-0.2188,-0.2208,-0.2213,-0.2213,-0.2212,-0.221,-0.2211,-0.2218,-0.2217,-0.2226,-0.2226,-0.2226,0,0,-0.1927,-0.1964,-0.1972,-0.1997,-0.2018,-0.2051,-0.2061,-0.2072,-0.2094,-0.2095,-0.2121,-0.2128,-0.2147,-0.2164,-0.2161,-0.2191,-0.2197,-0.2199,-0.2179,-0.2178,-0.2177,-0.2172,-0.2178,0,0,0,0,0,-0.1945,-0.1959,-0.1966,-0.1974,-0.202,-0.2047,-0.2053,-0.2074,-0.2077,-0.2084,-0.2103,-0.2117,-0.2167,-0.2164,-0.2172,-0.2175,-0.2226,-0.2226,-0.2226,-0.2206,-0.2204,-0.2203,0,0,0,0,0,0,-0.1948,-0.1958,-0.1965,-0.1999,-0.2009,-0.2047,-0.2056,-0.2062,-0.2077,-0.2078,-0.2112,-0.2118,-0.2137,-0.2162,-0.2169,-0.2171,-0.2176,-0.2226,-0.2226,-0.2226,-0.2205,-0.2204,-0.2203,0,0,0,0,0,-0.1951,-0.1958,-0.2027,-0.1999,-0.2008,-0.2039,-0.2056,-0.2061,-0.2073,-0.2105,-0.2111,-0.2087,-0.2136,-0.2143,-0.2166,-0.2168,-0.2172,-0.2174,-0.2226,-0.2226,-0.2226,-0.2205,0,0,0,0,0,0,-0.1953,-0.1963,-0.203,-0.2033,-0.1996,-0.2037,-0.2045,-0.206,-0.2099,-0.2104,-0.2081,-0.2082,-0.2136,-0.2142,-0.2147,-0.2165,-0.2168,-0.2171,-0.2172,-0.2226,-0.2226,-0.2226,0,0,0,0,0,0,-0.1959,-0.1966,-0.2031,-0.2027,-0.203,-0.2036,-0.2042,-0.2066,-0.2099,-0.2073,-0.2075,-0.2081,-0.2129,-0.214,-0.2145,-0.2181,-0.2166,-0.2168,-0.2169,-0.217,-0.2226,-0.2226,0,0,0,0,0,0,-0.1963,-0.1968,-0.2026,-0.2028,-0.2031,-0.2073,-0.2057,-0.2104,-0.2094,-0.2071,-0.2094,-0.2094,-0.2127,-0.2132,-0.2143,-0.2178,-0.218,-0.2166,-0.2167,-0.2168,-0.2169,0,0,0,0,0,0,0,-0.1965,-0.1921,-0.2008,-0.203,-0.2032,-0.2066,-0.2067,-0.2068,-0.2094,-0.2094,-0.2094,-0.2094,-0.2153,-0.2155,-0.2158,-0.2175,0,0,-0.2165,-0.2167,0,0,0,0,0,0,0,0,-0.1919,-0.192,-0.2009,-0.2009,-0.201,-0.2066,-0.2067,-0.2068,-0.2094,-0.2094,-0.2094,-0.2094,-0.2154,-0.2156,-0.2158,0,0,0,0,0,0,0,0,0,0,0,0,0,0,0,-0.2009,-0.2009,0,-0.2066,-0.2067,-0.2067,-0.2094,-0.2094,-0.2094,-0.2094,-0.2154,-0.2156,-0.2157,0,0,0,0,0,0,0,0,0,0,0,0,0,0,0,0,0,0,0,0,0,0,0,0,0,0,0,0,0,0,0,0,0,0,0,0,0,0,0,0,0,0,0,0,0,0,0,0,0,0,0,0,0,0,0,0,0,0,0,0,0,0,0,0,0,0,0,0,0]}],[{"header":{"parameterUnit":"kt","parameterCategory":2,"dx":1,"dy":1,"la1":30.253999710083008,"la2":30.299108505249023,"lo1":-89.0895004272461,"lo2":-89.04439544677734,"nx":28,"ny":28,"refTime":"2022-10-18T21:00:00:Z","depth":0,"parameterNumber":2,"parameterNumberName":"V-component_of_WINDS"},"data":[-6.286,-6.2967,-6.2986,-6.3115,-6.3154,-6.3245,-6.3283,-6.3334,-6.3379,-6.3488,-6.3553,-6.3582,-6.3633,-6.3713,-6.3784,-6.3794,-6.3821,-6.3844,-6.3852,-6.3734,-6.3719,-6.3704,-6.3679,-6.3851,-6.3851,-6.3969,-6.397,-6.3971,-6.2768,-6.2808,-6.2884,-6.2969,-6.3032,-6.3021,-6.3088,-6.314,-6.3222,-6.3279,-6.3345,-6.3442,-6.352,-6.3564,-6.3641,-6.3689,-6.3686,-6.3708,-6.3702,-6.3709,-6.3585,-6.3559,-6.3708,-6.3708,-6.3708,-6.3708,-6.3708,-6.3708,-6.2604,-6.2668,-6.2731,-6.2813,-6.2862,-6.2918,-6.2981,-6.3017,-6.3089,-6.3175,-6.3184,-6.3275,-6.3334,-6.3438,-6.3476,-6.3546,-6.3525,-6.3554,-6.356,-6.3566,-6.3568,-6.3388,-6.3561,-6.3561,-6.356,-6.356,-6.356,0,-6.2489,-6.2501,-6.2575,-6.2655,-6.2716,-6.2779,-6.284,-6.288,-6.2911,-6.2969,-6.3055,-6.3108,-6.321,-6.3291,-6.3369,-6.3404,-6.3394,-6.3398,-6.3416,-6.341,-6.3395,-6.34,-6.3192,-6.3391,-6.339,-6.3389,-6.3388,-6.3388,-6.2321,-6.2395,-6.2472,-6.2521,-6.256,-6.264,-6.269,-6.2712,-6.2765,-6.2842,-6.2897,-6.298,-6.3047,-6.3181,-6.3218,-6.3294,-6.329,-6.3363,-6.3301,-6.3293,-6.3285,-6.3279,-6.3284,-6.3373,-6.3375,-6.3376,-6.3378,0,-6.2223,-6.2256,-6.2377,-6.2446,-6.2465,-6.2541,-6.2598,-6.2663,-6.269,-6.2782,-6.2805,-6.2846,-6.293,-6.2957,-6.3058,-6.3068,-6.3187,-6.3183,-6.3165,-6.3164,-6.3229,-6.3221,-6.3445,-6.3473,-6.33,-6.3302,-6.3303,0,-6.209,-6.2188,-6.2229,-6.2298,-6.2405,-6.2425,-6.253,-6.2564,-6.2618,-6.269,-6.2687,-6.2755,-6.2779,-6.2851,-6.2867,-6.297,-6.299,-6.3002,-6.3005,-6.3,-6.2998,-6.3024,-6.3014,-6.3013,-6.3012,-6.3011,-6.301,0,-6.1931,-6.2069,-6.2182,-6.2218,-6.2301,-6.2353,-6.239,-6.245,-6.25,-6.2569,-6.26,-6.268,-6.2722,-6.2782,-6.2802,-6.2758,-6.2929,-6.2873,-6.2941,-6.2941,-6.2975,-6.2971,-6.3167,-6.3009,-6.3008,-6.3008,-6.3008,0,-6.1827,-6.19,-6.206,-6.2127,-6.2163,-6.2238,-6.2316,-6.2387,-6.2451,-6.2467,-6.2521,-6.2521,-6.2617,-6.2558,-6.2688,-6.2625,-6.2666,-6.2688,-6.2693,-6.2699,-6.2632,-6.2733,-6.2921,-6.2939,-6.271,-6.2707,-6.2705,0,-6.1633,-6.1804,-6.1823,-6.1975,-6.2057,-6.2047,-6.213,-6.2188,-6.2216,-6.2288,-6.2318,-6.24,-6.2363,-6.2392,-6.2454,-6.2487,-6.2569,-6.2477,-6.2574,-6.2577,-6.2553,-6.2727,-6.2745,-6.2877,-6.2674,-6.2677,-6.2679,0,-6.1486,-6.1589,-6.1615,-6.1656,-6.1738,-6.1808,-6.1904,-6.1991,-6.2037,-6.2105,-6.2183,-6.2302,-6.2277,-6.2326,-6.2334,-6.2397,-6.2514,-6.2361,-6.2363,-6.2384,-6.2662,-6.2679,-6.2701,-6.2505,-6.2509,-6.2512,-6.2655,0,-6.1313,-6.1405,-6.1479,-6.1573,-6.1632,-6.173,-6.1761,-6.1818,-6.182,-6.1847,-6.1965,-6.2021,-6.2108,-6.2142,-6.2146,-6.2282,-6.2262,-6.2235,-6.2177,-6.2293,-6.234,-6.236,-6.2104,-6.2102,-6.2101,-6.21,0,0,-6.1116,-6.1249,-6.1267,-6.1363,-6.1413,-6.1402,-6.1503,-6.1551,-6.1647,-6.1681,-6.165,-6.1824,-6.1871,-6.201,-6.2049,-6.2086,-6.2111,-6.207,-6.2239,-6.2254,-6.2268,-6.2318,-6.2339,-6.2098,-6.2097,-6.2097,-6.2097,0,-6.1059,-6.1112,-6.1214,-6.1265,-6.134,-6.1365,-6.139,-6.1462,-6.1484,-6.1602,-6.1588,-6.1663,-6.1804,-6.1853,-6.1896,-6.2056,-6.2039,-6.2081,-6.2155,-6.2225,-6.2242,-6.2257,-6.231,-6.2329,-6.2094,-6.2094,-6.2094,0,-6.0916,-6.0971,-6.1025,-6.1143,-6.1192,-6.1278,-6.1226,-6.132,-6.1384,-6.1364,-6.1481,-6.1516,-6.1585,-6.1716,-6.1775,-6.1748,-6.1971,-6.1908,-6.1917,-6.1922,-6.1992,-6.2012,-6.203,-6.1789,-6.1788,-6.1787,0,0,-6.0862,-6.0949,-6.1014,-6.1132,-6.1164,-6.1203,-6.1253,-6.126,-6.1325,-6.135,-6.1394,-6.1456,-6.1537,-6.159,-6.1668,-6.1808,-6.1822,-6.1869,-6.1883,-6.1895,-6.1907,-6.1979,-6.2,-6.1782,-6.1782,-6.1782,0,0,-6.0836,-6.0916,-6.0908,-6.105,-6.1112,-6.1183,-6.1252,-6.1243,-6.1317,-6.1309,-6.1324,-6.1342,-6.1464,-6.1499,-6.1436,-6.1647,-6.159,-6.1605,-6.1619,-6.1638,-6.1652,-6.1639,-6.1387,0,0,0,0,0,-6.0792,-6.0906,-6.0898,-6.0926,-6.1075,-6.1188,-6.1206,-6.1223,-6.1181,-6.1236,-6.1271,-6.1252,-6.1467,-6.1412,-6.1439,-6.1508,-6.1725,-6.1735,-6.1745,-6.1796,-6.1815,-6.1831,0,0,0,0,0,0,-6.0804,-6.0839,-6.0895,-6.097,-6.1003,-6.1184,-6.1116,-6.1124,-6.1176,-6.117,-6.1246,-6.1254,-6.1269,-6.1399,-6.1423,-6.1489,-6.1379,-6.1729,-6.1737,-6.1745,-6.1802,-6.1818,-6.1831,0,0,0,0,0,-6.0813,-6.0841,-6.1076,-6.0968,-6.0998,-6.1047,-6.1112,-6.1118,-6.1158,-6.1213,-6.1221,-6.1166,-6.127,-6.1292,-6.1414,-6.1477,-6.1363,-6.1372,-6.1734,-6.1741,-6.1747,-6.181,0,0,0,0,0,0,-6.082,-6.0846,-6.1082,-6.1091,-6.0927,-6.1037,-6.1055,-6.1113,-6.1198,-6.1207,-6.1133,-6.1128,-6.1273,-6.1289,-6.1305,-6.1472,-6.1349,-6.1358,-6.1364,-6.174,-6.1745,-6.175,0,0,0,0,0,0,-6.0831,-6.0854,-6.1087,-6.1034,-6.1037,-6.1028,-6.1044,-6.115,-6.1199,-6.1113,-6.1111,-6.113,-6.1247,-6.1288,-6.13,-6.1465,-6.1339,-6.1348,-6.1354,-6.1358,-6.1744,-6.1748,0,0,0,0,0,0,-6.0841,-6.0861,-6.1031,-6.1034,-6.1037,-6.1143,-6.1121,-6.1272,-6.1155,-6.1109,-6.1145,-6.114,-6.1247,-6.126,-6.1297,-6.1457,-6.1463,-6.1339,-6.1345,-6.1349,-6.1352,0,0,0,0,0,0,0,-6.0849,-6.0713,-6.1026,-6.1034,-6.1036,-6.1178,-6.118,-6.1183,-6.1154,-6.115,-6.1146,-6.1142,-6.129,-6.1299,-6.1309,-6.145,0,0,-6.1338,-6.1343,0,0,0,0,0,0,0,0,-6.0705,-6.0711,-6.1027,-6.1029,-6.1031,-6.1178,-6.118,-6.1182,-6.1154,-6.115,-6.1147,-6.1144,-6.1292,-6.13,-6.1308,0,0,0,0,0,0,0,0,0,0,0,0,0,0,0,-6.1027,-6.1029,0,-6.1178,-6.118,-6.1182,-6.1153,-6.115,-6.1148,-6.1145,-6.1294,-6.1301,-6.1307,0,0,0,0,0,0,0,0,0,0,0,0,0,0,0,0,0,0,0,0,0,0,0,0,0,0,0,0,0,0,0,0,0,0,0,0,0,0,0,0,0,0,0,0,0,0,0,0,0,0,0,0,0,0,0,0,0,0,0,0,0,0,0,0,0,0,0,0,0]}]]]